Time,TemperatureF,DewpointF,PressureIn,WindDirection,WindDirectionDegrees,WindSpeedMPH,WindSpeedGustMPH,Humidity,HourlyPrecipIn,Conditions,Clouds,dailyrainin,SoftwareType,DateUTC
2013-02-02 00:00:00,51.4,35.8,30.20,NNW,346,0.0,1.0,55,0.00,CLR,CLR,0.00,WeatherDisplay:10.37,2013-02-02 05:00:00,
2013-02-02 00:17:00,51.0,37.6,30.20,North,353,1.0,2.0,60,0.00,CLR,CLR,0.00,WeatherDisplay:10.37,2013-02-02 05:17:00,
2013-02-02 00:21:00,51.2,36.9,30.20,NNW,347,2.0,5.0,58,0.00,CLR,CLR,0.00,WeatherDisplay:10.37,2013-02-02 05:21:00,
2013-02-02 00:30:00,51.8,36.6,30.20,NNW,347,2.0,4.0,56,0.00,CLR,CLR,0.00,WeatherDisplay:10.37,2013-02-02 05:30:00,
2013-02-02 00:40:00,51.8,36.6,30.20,North,8,3.0,6.0,56,0.00,CLR,CLR,0.00,WeatherDisplay:10.37,2013-02-02 05:40:00,
2013-02-02 00:50:00,51.8,36.6,30.20,North,6,6.0,6.0,56,0.00,CLR,CLR,0.00,WeatherDisplay:10.37,2013-02-02 05:50:00,
2013-02-02 01:00:00,51.8,37.0,30.21,North,8,5.0,8.0,57,0.00,CLR,CLR,0.00,WeatherDisplay:10.37,2013-02-02 06:00:00,
2013-02-02 01:05:00,51.8,37.0,30.20,North,358,3.0,7.0,57,0.00,CLR,CLR,0.00,WeatherDisplay:10.37,2013-02-02 06:05:00,
2013-02-02 01:10:00,51.7,36.9,30.20,North,5,5.0,7.0,57,0.00,CLR,CLR,0.00,WeatherDisplay:10.37,2013-02-02 06:10:00,
2013-02-02 01:20:00,51.6,36.8,30.21,North,357,2.0,7.0,57,0.00,CLR,CLR,0.00,WeatherDisplay:10.37,2013-02-02 06:20:00,
2013-02-02 01:30:00,51.4,37.1,30.21,North,11,3.0,9.0,58,0.00,CLR,CLR,0.00,WeatherDisplay:10.37,2013-02-02 06:30:00,
2013-02-02 01:40:00,51.0,36.7,30.20,North,360,5.0,8.0,58,0.00,CLR,CLR,0.00,WeatherDisplay:10.37,2013-02-02 06:40:00,
2013-02-02 01:50:00,50.7,36.9,30.20,North,2,3.0,7.0,59,0.00,CLR,CLR,0.00,WeatherDisplay:10.37,2013-02-02 06:50:00,
2013-02-02 02:00:00,50.5,36.7,30.20,North,359,2.0,7.0,59,0.00,CLR,CLR,0.00,WeatherDisplay:10.37,2013-02-02 07:00:00,
2013-02-02 02:05:00,50.5,37.2,30.20,North,1,3.0,8.0,60,0.00,CLR,CLR,0.00,WeatherDisplay:10.37,2013-02-02 07:05:00,
2013-02-02 02:10:00,50.4,36.6,30.20,North,359,3.0,6.0,59,0.00,CLR,CLR,0.00,WeatherDisplay:10.37,2013-02-02 07:10:00,
2013-02-02 02:20:00,50.2,36.8,30.19,North,5,2.0,8.0,60,0.00,CLR,CLR,0.00,WeatherDisplay:10.37,2013-02-02 07:20:00,
2013-02-02 02:30:00,50.0,36.7,30.19,North,8,2.0,8.0,60,0.00,CLR,CLR,0.00,WeatherDisplay:10.37,2013-02-02 07:30:00,
2013-02-02 02:40:00,49.9,36.6,30.19,North,6,5.0,6.0,60,0.00,CLR,CLR,0.00,WeatherDisplay:10.37,2013-02-02 07:40:00,
2013-02-02 02:50:00,49.6,36.7,30.19,North,2,3.0,8.0,61,0.00,CLR,CLR,0.00,WeatherDisplay:10.37,2013-02-02 07:50:00,
2013-02-02 03:00:00,49.5,36.2,30.19,North,1,3.0,6.0,60,0.00,CLR,CLR,0.00,WeatherDisplay:10.37,2013-02-02 08:00:00,
2013-02-02 03:10:00,49.3,36.0,30.19,North,11,3.0,8.0,60,0.00,CLR,CLR,0.00,WeatherDisplay:10.37,2013-02-02 08:10:00,
2013-02-02 03:20:00,49.1,35.8,30.19,North,2,7.0,8.0,60,0.00,CLR,CLR,0.00,WeatherDisplay:10.37,2013-02-02 08:20:00,
2013-02-02 03:30:00,48.7,35.9,30.19,North,359,2.0,5.0,61,0.00,CLR,CLR,0.00,WeatherDisplay:10.37,2013-02-02 08:30:00,
2013-02-02 03:40:00,48.6,36.1,30.19,North,353,3.0,7.0,62,0.00,CLR,CLR,0.00,WeatherDisplay:10.37,2013-02-02 08:40:00,
2013-02-02 03:50:00,48.4,36.8,30.19,North,355,3.0,8.0,64,0.00,CLR,CLR,0.00,WeatherDisplay:10.37,2013-02-02 08:50:00,
2013-02-02 04:00:00,48.3,36.6,30.20,North,3,2.0,7.0,64,0.00,CLR,CLR,0.00,WeatherDisplay:10.37,2013-02-02 09:00:00,
2013-02-02 04:05:00,48.2,36.6,30.20,North,360,3.0,6.0,64,0.00,CLR,CLR,0.00,WeatherDisplay:10.37,2013-02-02 09:05:00,
2013-02-02 04:10:00,48.2,37.0,30.19,North,5,5.0,8.0,65,0.00,CLR,CLR,0.00,WeatherDisplay:10.37,2013-02-02 09:10:00,
2013-02-02 04:20:00,48.0,37.2,30.20,North,358,3.0,6.0,66,0.00,CLR,CLR,0.00,WeatherDisplay:10.37,2013-02-02 09:20:00,
2013-02-02 04:30:00,48.0,37.2,30.19,North,357,5.0,8.0,66,0.00,CLR,CLR,0.00,WeatherDisplay:10.37,2013-02-02 09:30:00,
2013-02-02 04:40:00,47.8,37.0,30.19,North,357,2.0,6.0,66,0.00,CLR,CLR,0.00,WeatherDisplay:10.37,2013-02-02 09:40:00,
2013-02-02 04:50:00,47.7,37.6,30.19,North,354,2.0,6.0,68,0.00,CLR,CLR,0.00,WeatherDisplay:10.37,2013-02-02 09:50:00,
2013-02-02 05:00:00,47.6,37.5,30.19,North,1,2.0,5.0,68,0.00,CLR,CLR,0.00,WeatherDisplay:10.37,2013-02-02 10:00:00,
2013-02-02 05:05:00,47.5,37.4,30.19,North,5,1.0,5.0,68,0.00,CLR,CLR,0.00,WeatherDisplay:10.37,2013-02-02 10:05:00,
2013-02-02 05:10:00,47.5,37.8,30.20,North,9,3.0,6.0,69,0.00,CLR,CLR,0.00,WeatherDisplay:10.37,2013-02-02 10:10:00,
2013-02-02 05:20:00,47.2,37.9,30.19,North,351,1.0,3.0,70,0.00,CLR,CLR,0.00,WeatherDisplay:10.37,2013-02-02 10:20:00,
2013-02-02 05:30:00,46.8,37.5,30.19,NNW,345,1.0,5.0,70,0.00,CLR,CLR,0.00,WeatherDisplay:10.37,2013-02-02 10:30:00,
2013-02-02 05:40:00,46.0,37.5,30.19,NW,318,2.0,2.0,72,0.00,CLR,CLR,0.00,WeatherDisplay:10.37,2013-02-02 10:40:00,
2013-02-02 05:50:00,45.4,37.3,30.19,NW,318,1.0,2.0,73,0.00,CLR,CLR,0.00,WeatherDisplay:10.37,2013-02-02 10:50:00,
2013-02-02 06:00:00,45.1,37.0,30.20,NW,312,1.0,2.0,73,0.00,CLR,CLR,0.00,WeatherDisplay:10.37,2013-02-02 11:00:00,
2013-02-02 06:05:00,45.1,37.0,30.20,NW,325,1.0,2.0,73,0.00,CLR,CLR,0.00,WeatherDisplay:10.37,2013-02-02 11:05:00,
2013-02-02 06:10:00,45.0,37.2,30.20,NW,323,2.0,2.0,74,0.00,CLR,CLR,0.00,WeatherDisplay:10.37,2013-02-02 11:10:00,
2013-02-02 06:20:00,45.0,37.2,30.21,NW,324,1.0,2.0,74,0.00,CLR,CLR,0.00,WeatherDisplay:10.37,2013-02-02 11:20:00,
2013-02-02 06:30:00,45.0,37.2,30.21,NW,317,1.0,3.0,74,0.00,CLR,CLR,0.00,WeatherDisplay:10.37,2013-02-02 11:30:00,
2013-02-02 06:40:00,44.8,37.3,30.21,NW,320,1.0,2.0,75,0.00,CLR,CLR,0.00,WeatherDisplay:10.37,2013-02-02 11:40:00,
2013-02-02 06:50:00,44.7,37.3,30.22,NNW,328,1.0,2.0,75,0.00,CLR,CLR,0.00,WeatherDisplay:10.37,2013-02-02 11:50:00,
2013-02-02 07:00:00,44.6,37.5,30.22,NW,317,2.0,2.0,76,0.00,CLR,CLR,0.00,WeatherDisplay:10.37,2013-02-02 12:00:00,
2013-02-02 07:05:00,44.6,37.8,30.22,NW,322,1.0,2.0,77,0.00,FEW,FEW,0.00,WeatherDisplay:10.37,2013-02-02 12:05:00,
2013-02-02 07:10:00,44.4,37.7,30.22,NW,322,1.0,3.0,77,0.00,FEW,FEW,0.00,WeatherDisplay:10.37,2013-02-02 12:10:00,
2013-02-02 07:20:00,44.4,37.3,30.22,NNW,328,1.0,3.0,76,0.00,FEW,FEW,0.00,WeatherDisplay:10.37,2013-02-02 12:20:00,
2013-02-02 07:30:00,45.0,37.5,30.22,NNW,333,1.0,2.0,75,0.00,FEW,FEW,0.00,WeatherDisplay:10.37,2013-02-02 12:30:00,
2013-02-02 07:40:00,45.7,37.5,30.22,NW,313,2.0,3.0,73,0.00,FEW,FEW,0.00,WeatherDisplay:10.37,2013-02-02 12:40:00,
2013-02-02 07:50:00,46.4,37.9,30.22,NNW,335,2.0,3.0,72,0.00,FEW,FEW,0.00,WeatherDisplay:10.37,2013-02-02 12:50:00,
2013-02-02 08:00:00,47.4,38.4,30.22,NW,326,2.0,4.0,71,0.00,FEW,FEW,0.00,WeatherDisplay:10.37,2013-02-02 13:00:00,
2013-02-02 08:05:00,48.0,38.7,30.23,NNW,328,1.0,5.0,70,0.00,CLR,CLR,0.00,WeatherDisplay:10.37,2013-02-02 13:05:00,
2013-02-02 08:10:00,48.4,38.7,30.23,NNW,348,2.0,5.0,69,0.00,CLR,CLR,0.00,WeatherDisplay:10.37,2013-02-02 13:10:00,
2013-02-02 08:20:00,50.0,39.5,30.23,NNW,334,2.0,2.0,67,0.00,CLR,CLR,0.00,WeatherDisplay:10.37,2013-02-02 13:20:00,
2013-02-02 08:30:00,51.1,40.5,30.23,North,355,1.0,5.0,67,0.00,CLR,CLR,0.00,WeatherDisplay:10.37,2013-02-02 13:30:00,
2013-02-02 08:40:00,51.7,40.7,30.23,NNW,335,0.0,5.0,66,0.00,CLR,CLR,0.00,WeatherDisplay:10.37,2013-02-02 13:40:00,
2013-02-02 08:50:00,53.1,41.2,30.23,NNW,341,2.0,4.0,64,0.00,CLR,CLR,0.00,WeatherDisplay:10.37,2013-02-02 13:50:00,
2013-02-02 09:00:00,54.5,41.7,30.23,NNW,331,1.0,2.0,62,0.00,CLR,CLR,0.00,WeatherDisplay:10.37,2013-02-02 14:00:00,
2013-02-02 09:05:00,54.8,42.0,30.23,NNW,346,1.0,5.0,62,0.00,CLR,CLR,0.00,WeatherDisplay:10.37,2013-02-02 14:05:00,
2013-02-02 09:10:00,55.3,42.5,30.23,North,4,1.0,3.0,62,0.00,CLR,CLR,0.00,WeatherDisplay:10.37,2013-02-02 14:10:00,
2013-02-02 09:20:00,56.1,42.4,30.23,North,352,3.0,6.0,60,0.00,CLR,CLR,0.00,WeatherDisplay:10.37,2013-02-02 14:20:00,
2013-02-02 09:30:00,56.6,42.4,30.22,North,9,5.0,6.0,59,0.00,CLR,CLR,0.00,WeatherDisplay:10.37,2013-02-02 14:30:00,
2013-02-02 09:40:00,57.7,43.1,30.23,NNE,16,1.0,6.0,58,0.00,CLR,CLR,0.00,WeatherDisplay:10.37,2013-02-02 14:40:00,
2013-02-02 09:50:00,59.0,44.2,30.23,NNE,15,3.0,6.0,58,0.00,CLR,CLR,0.00,WeatherDisplay:10.37,2013-02-02 14:50:00,
2013-02-02 10:00:00,59.2,43.5,30.22,North,9,5.0,9.0,56,0.00,CLR,CLR,0.00,WeatherDisplay:10.37,2013-02-02 15:00:00,
2013-02-02 10:05:00,59.4,43.7,30.22,North,4,2.0,7.0,56,0.00,CLR,CLR,0.00,WeatherDisplay:10.37,2013-02-02 15:05:00,
2013-02-02 10:10:00,59.7,43.5,30.22,North,3,7.0,7.0,55,0.00,CLR,CLR,0.00,WeatherDisplay:10.37,2013-02-02 15:10:00,
2013-02-02 10:20:00,61.3,43.5,30.22,NNE,17,3.0,6.0,52,0.00,CLR,CLR,0.00,WeatherDisplay:10.37,2013-02-02 15:20:00,
2013-02-02 10:30:00,63.1,43.7,30.21,NE,42,3.0,6.0,49,0.00,CLR,CLR,0.00,WeatherDisplay:10.37,2013-02-02 15:30:00,
2013-02-02 10:40:00,63.3,42.7,30.21,NNE,19,5.0,7.0,47,0.00,CLR,CLR,0.00,WeatherDisplay:10.37,2013-02-02 15:40:00,
2013-02-02 10:50:00,63.8,41.5,30.21,NE,48,6.0,10.0,44,0.00,CLR,CLR,0.00,WeatherDisplay:10.37,2013-02-02 15:50:00,
2013-02-02 11:00:00,64.4,40.8,30.20,NE,35,3.0,9.0,42,0.00,CLR,CLR,0.00,WeatherDisplay:10.37,2013-02-02 16:00:00,
2013-02-02 11:05:00,64.5,40.9,30.20,NE,44,5.0,8.0,42,0.00,CLR,CLR,0.00,WeatherDisplay:10.37,2013-02-02 16:05:00,
2013-02-02 11:10:00,65.4,41.1,30.20,ENE,67,1.0,6.0,41,0.00,CLR,CLR,0.00,WeatherDisplay:10.37,2013-02-02 16:10:00,
2013-02-02 11:20:00,66.1,40.4,30.20,ENE,60,5.0,6.0,39,0.00,CLR,CLR,0.00,WeatherDisplay:10.37,2013-02-02 16:20:00,
2013-02-02 11:30:00,66.6,39.5,30.20,NE,37,3.0,6.0,37,0.00,CLR,CLR,0.00,WeatherDisplay:10.37,2013-02-02 16:30:00,
2013-02-02 11:40:00,67.7,39.0,30.19,NE,36,2.0,5.0,35,0.00,CLR,CLR,0.00,WeatherDisplay:10.37,2013-02-02 16:40:00,
2013-02-02 11:50:00,67.5,38.1,30.19,NNE,14,3.0,8.0,34,0.00,CLR,CLR,0.00,WeatherDisplay:10.37,2013-02-02 16:50:00,
2013-02-02 12:00:00,67.6,37.5,30.18,NW,308,3.0,5.0,33,0.00,CLR,CLR,0.00,WeatherDisplay:10.37,2013-02-02 17:00:00,
2013-02-02 12:05:00,67.9,38.5,30.18,NW,321,6.0,7.0,34,0.00,FEW,FEW,0.00,WeatherDisplay:10.37,2013-02-02 17:05:00,
2013-02-02 12:10:00,67.6,39.0,30.18,NE,49,2.0,7.0,35,0.00,FEW,FEW,0.00,WeatherDisplay:10.37,2013-02-02 17:10:00,
2013-02-02 12:20:00,67.8,37.6,30.17,NW,308,2.0,6.0,33,0.00,FEW,FEW,0.00,WeatherDisplay:10.37,2013-02-02 17:20:00,
2013-02-02 12:30:00,68.7,38.4,30.17,NNE,30,2.0,3.0,33,0.00,FEW,FEW,0.00,WeatherDisplay:10.37,2013-02-02 17:30:00,
2013-02-02 12:40:00,69.4,39.0,30.16,North,4,1.0,5.0,33,0.00,FEW,FEW,0.00,WeatherDisplay:10.37,2013-02-02 17:40:00,
2013-02-02 12:50:00,69.7,39.3,30.15,NNE,14,2.0,6.0,33,0.00,FEW,FEW,0.00,WeatherDisplay:10.37,2013-02-02 17:50:00,
2013-02-02 13:00:00,69.0,37.9,30.14,West,271,3.0,5.0,32,0.00,FEW,FEW,0.00,WeatherDisplay:10.37,2013-02-02 18:00:00,
2013-02-02 13:05:00,69.2,39.6,30.14,SW,235,1.0,3.0,34,0.00,FEW,FEW,0.00,WeatherDisplay:10.37,2013-02-02 18:05:00,
2013-02-02 13:10:00,70.2,39.7,30.14,SW,214,1.0,3.0,33,0.00,FEW,FEW,0.00,WeatherDisplay:10.37,2013-02-02 18:10:00,
2013-02-02 13:20:00,69.3,38.9,30.13,WSW,246,3.0,5.0,33,0.00,FEW,FEW,0.00,WeatherDisplay:10.37,2013-02-02 18:20:00,
2013-02-02 13:30:00,68.8,40.1,30.13,SW,224,2.0,6.0,35,0.00,FEW,FEW,0.00,WeatherDisplay:10.37,2013-02-02 18:30:00,
2013-02-02 13:40:00,68.9,39.4,30.12,SSE,166,3.0,7.0,34,0.00,FEW,FEW,0.00,WeatherDisplay:10.37,2013-02-02 18:40:00,
2013-02-02 13:50:00,70.5,40.0,30.12,SSW,192,5.0,7.0,33,0.00,FEW,FEW,0.00,WeatherDisplay:10.37,2013-02-02 18:50:00,
2013-02-02 14:00:00,69.6,40.0,30.11,WSW,246,2.0,9.0,34,0.00,FEW,FEW,0.00,WeatherDisplay:10.37,2013-02-02 19:00:00,
2013-02-02 14:05:00,70.0,39.5,30.11,WSW,255,5.0,7.0,33,0.00,FEW,FEW,0.00,WeatherDisplay:10.37,2013-02-02 19:05:00,
2013-02-02 14:10:00,69.9,39.5,30.11,WNW,291,6.0,7.0,33,0.00,FEW,FEW,0.00,WeatherDisplay:10.37,2013-02-02 19:10:00,
2013-02-02 14:20:00,69.7,39.3,30.11,SW,232,6.0,10.0,33,0.00,FEW,FEW,0.00,WeatherDisplay:10.37,2013-02-02 19:20:00,
2013-02-02 14:30:00,71.1,39.7,30.10,SSW,203,3.0,5.0,32,0.00,FEW,FEW,0.00,WeatherDisplay:10.37,2013-02-02 19:30:00,
2013-02-02 14:40:00,71.9,40.4,30.10,South,170,2.0,6.0,32,0.00,FEW,FEW,0.00,WeatherDisplay:10.37,2013-02-02 19:40:00,
2013-02-02 14:50:00,72.0,40.5,30.09,SE,124,3.0,7.0,32,0.00,FEW,FEW,0.00,WeatherDisplay:10.37,2013-02-02 19:50:00,
2013-02-02 15:00:00,72.0,40.5,30.09,South,180,5.0,7.0,32,0.00,FEW,FEW,0.00,WeatherDisplay:10.37,2013-02-02 20:00:00,
2013-02-02 15:05:00,72.5,40.1,30.09,South,189,1.0,6.0,31,0.00,FEW,FEW,0.00,WeatherDisplay:10.37,2013-02-02 20:05:00,
2013-02-02 15:10:00,72.8,40.4,30.09,South,189,3.0,7.0,31,0.00,FEW,FEW,0.00,WeatherDisplay:10.37,2013-02-02 20:10:00,
2013-02-02 15:20:00,73.6,40.3,30.09,South,183,5.0,7.0,30,0.00,FEW,FEW,0.00,WeatherDisplay:10.37,2013-02-02 20:20:00,
2013-02-02 15:30:00,72.1,40.6,30.09,SSE,158,3.0,7.0,32,0.00,FEW,FEW,0.00,WeatherDisplay:10.37,2013-02-02 20:30:00,
2013-02-02 15:40:00,73.2,40.8,30.08,SSE,156,5.0,8.0,31,0.00,FEW,FEW,0.00,WeatherDisplay:10.37,2013-02-02 20:40:00,
2013-02-02 15:50:00,73.2,39.9,30.08,SE,146,3.0,6.0,30,0.00,FEW,FEW,0.00,WeatherDisplay:10.37,2013-02-02 20:50:00,
2013-02-02 16:00:00,73.4,40.1,30.08,SW,216,2.0,6.0,30,0.00,FEW,FEW,0.00,WeatherDisplay:10.37,2013-02-02 21:00:00,
2013-02-02 16:10:00,73.2,39.9,30.07,SW,214,2.0,6.0,30,0.00,FEW,FEW,0.00,WeatherDisplay:10.37,2013-02-02 21:10:00,
2013-02-02 16:20:00,72.8,39.6,30.07,SSW,196,6.0,8.0,30,0.00,FEW,FEW,0.00,WeatherDisplay:10.37,2013-02-02 21:20:00,
2013-02-02 16:30:00,72.6,39.4,30.07,SSW,201,6.0,6.0,30,0.00,FEW,FEW,0.00,WeatherDisplay:10.37,2013-02-02 21:30:00,
2013-02-02 16:40:00,74.0,40.6,30.07,SSW,206,2.0,5.0,30,0.00,FEW,FEW,0.00,WeatherDisplay:10.37,2013-02-02 21:40:00,
2013-02-02 16:50:00,73.7,40.3,30.07,SW,235,1.0,6.0,30,0.00,FEW,FEW,0.00,WeatherDisplay:10.37,2013-02-02 21:50:00,
2013-02-02 17:00:00,74.9,39.6,30.07,West,271,3.0,5.0,28,0.00,FEW,FEW,0.00,WeatherDisplay:10.37,2013-02-02 22:00:00,
2013-02-02 17:05:00,73.4,39.2,30.07,West,277,1.0,5.0,29,0.00,FEW,FEW,0.00,WeatherDisplay:10.37,2013-02-02 22:05:00,
2013-02-02 17:10:00,73.4,39.2,30.07,West,279,2.0,5.0,29,0.00,FEW,FEW,0.00,WeatherDisplay:10.37,2013-02-02 22:10:00,
2013-02-02 17:20:00,72.3,38.3,30.07,WSW,238,8.0,9.0,29,0.00,FEW,FEW,0.00,WeatherDisplay:10.37,2013-02-02 22:20:00,
2013-02-02 17:30:00,71.5,38.5,30.07,SW,234,3.0,6.0,30,0.00,FEW,FEW,0.00,WeatherDisplay:10.37,2013-02-02 22:30:00,
2013-02-02 17:40:00,71.0,38.0,30.07,SW,215,6.0,7.0,30,0.00,FEW,FEW,0.00,WeatherDisplay:10.37,2013-02-02 22:40:00,
2013-02-02 17:50:00,70.2,38.2,30.07,WSW,254,3.0,6.0,31,0.00,FEW,FEW,0.00,WeatherDisplay:10.37,2013-02-02 22:50:00,
2013-02-02 18:00:00,69.2,37.2,30.07,West,259,3.0,5.0,31,0.00,FEW,FEW,0.00,WeatherDisplay:10.37,2013-02-02 23:00:00,
2013-02-02 18:10:00,67.8,36.9,30.07,West,259,2.0,5.0,32,0.00,SCT,SCT,0.00,WeatherDisplay:10.37,2013-02-02 23:10:00,
2013-02-02 18:20:00,66.9,36.9,30.07,WSW,246,1.0,2.0,33,0.00,SCT,SCT,0.00,WeatherDisplay:10.37,2013-02-02 23:20:00,
2013-02-02 18:30:00,66.2,36.9,30.07,WSW,258,1.0,2.0,34,0.00,SCT,SCT,0.00,WeatherDisplay:10.37,2013-02-02 23:30:00,
2013-02-02 18:40:00,65.3,36.2,30.07,West,270,1.0,1.0,34,0.00,SCT,SCT,0.00,WeatherDisplay:10.37,2013-02-02 23:40:00,
2013-02-02 18:50:00,64.9,37.3,30.07,West,270,1.0,1.0,36,0.00,SCT,SCT,0.00,WeatherDisplay:10.37,2013-02-02 23:50:00,
2013-02-02 19:00:00,64.4,38.9,30.08,WNW,298,1.0,2.0,39,0.00,SCT,SCT,0.00,WeatherDisplay:10.37,2013-02-03 00:00:00,
2013-02-02 19:05:00,64.1,38.6,30.08,NW,315,0.0,1.0,39,0.00,SCT,SCT,0.00,WeatherDisplay:10.37,2013-02-03 00:05:00,
2013-02-02 19:10:00,63.5,38.1,30.08,NW,315,0.0,1.0,39,0.00,SCT,SCT,0.00,WeatherDisplay:10.37,2013-02-03 00:10:00,
2013-02-02 19:20:00,63.5,38.7,30.08,NW,315,0.0,1.0,40,0.00,SCT,SCT,0.00,WeatherDisplay:10.37,2013-02-03 00:20:00,
2013-02-02 19:30:00,63.2,40.4,30.08,NW,323,1.0,2.0,43,0.00,SCT,SCT,0.00,WeatherDisplay:10.37,2013-02-03 00:30:00,
2013-02-02 19:40:00,62.9,40.7,30.08,NNW,338,1.0,2.0,44,0.00,SCT,SCT,0.00,WeatherDisplay:10.37,2013-02-03 00:40:00,
2013-02-02 19:50:00,62.3,42.8,30.08,NNW,338,0.0,1.0,49,0.00,SCT,SCT,0.00,WeatherDisplay:10.37,2013-02-03 00:50:00,
2013-02-02 20:00:00,61.0,43.3,30.09,NNW,338,0.0,1.0,52,0.00,SCT,SCT,0.00,WeatherDisplay:10.37,2013-02-03 01:00:00,
2013-02-02 20:10:00,60.6,43.3,30.09,NNE,16,2.0,3.0,53,0.00,FEW,FEW,0.00,WeatherDisplay:10.37,2013-02-03 01:10:00,
2013-02-02 20:20:00,60.4,42.2,30.09,ENE,67,2.0,4.0,51,0.00,FEW,FEW,0.00,WeatherDisplay:10.37,2013-02-03 01:20:00,
2013-02-02 20:30:00,59.5,43.3,30.09,North,6,2.0,2.0,55,0.00,FEW,FEW,0.00,WeatherDisplay:10.37,2013-02-03 01:30:00,
2013-02-02 20:40:00,59.3,43.2,30.09,NNE,25,1.0,3.0,55,0.00,FEW,FEW,0.00,WeatherDisplay:10.37,2013-02-03 01:40:00,
2013-02-02 20:50:00,59.0,42.8,30.09,NE,44,1.0,2.0,55,0.00,FEW,FEW,0.00,WeatherDisplay:10.37,2013-02-03 01:50:00,
2013-02-02 21:00:00,58.8,44.0,30.09,North,356,1.0,2.0,58,0.00,FEW,FEW,0.00,WeatherDisplay:10.37,2013-02-03 02:00:00,
2013-02-02 21:05:00,58.7,43.0,30.09,North,3,1.0,2.0,56,0.00,FEW,FEW,0.00,WeatherDisplay:10.37,2013-02-03 02:05:00,
2013-02-02 21:11:00,58.3,44.5,30.09,North,10,1.0,2.0,60,0.00,FEW,FEW,0.00,WeatherDisplay:10.37,2013-02-03 02:11:00,
2013-02-02 21:20:00,58.1,44.7,30.09,NNW,345,2.0,2.0,61,0.00,FEW,FEW,0.00,WeatherDisplay:10.37,2013-02-03 02:20:00,
2013-02-02 21:30:00,57.4,43.6,30.09,WNW,300,0.0,2.0,60,0.00,FEW,FEW,0.00,WeatherDisplay:10.37,2013-02-03 02:30:00,
2013-02-02 21:40:00,56.8,44.8,30.09,WNW,295,0.0,2.0,64,0.00,FEW,FEW,0.00,WeatherDisplay:10.37,2013-02-03 02:40:00,
2013-02-02 21:50:00,56.8,47.5,30.09,North,349,1.0,2.0,71,0.00,FEW,FEW,0.00,WeatherDisplay:10.37,2013-02-03 02:50:00,
2013-02-02 22:00:00,56.7,45.5,30.09,NNW,348,1.0,2.0,66,0.00,FEW,FEW,0.00,WeatherDisplay:10.37,2013-02-03 03:00:00,
2013-02-02 22:05:00,56.8,45.6,30.09,NNW,345,0.0,2.0,66,0.00,CLR,CLR,0.00,WeatherDisplay:10.37,2013-02-03 03:05:00,
2013-02-02 22:10:00,56.7,45.8,30.09,NNW,338,1.0,2.0,67,0.00,CLR,CLR,0.00,WeatherDisplay:10.37,2013-02-03 03:10:00,
2013-02-02 22:20:00,56.3,47.0,30.09,North,356,2.0,2.0,71,0.00,CLR,CLR,0.00,WeatherDisplay:10.37,2013-02-03 03:20:00,
2013-02-02 22:30:00,55.9,46.3,30.09,North,350,1.0,2.0,70,0.00,CLR,CLR,0.00,WeatherDisplay:10.37,2013-02-03 03:30:00,
2013-02-02 22:40:00,55.8,46.1,30.09,NNW,330,1.0,1.0,70,0.00,CLR,CLR,0.00,WeatherDisplay:10.37,2013-02-03 03:40:00,
2013-02-02 22:50:00,55.4,45.4,30.09,NNW,338,1.0,1.0,69,0.00,CLR,CLR,0.00,WeatherDisplay:10.37,2013-02-03 03:50:00,
2013-02-02 23:00:00,54.7,45.8,30.09,North,0,0.0,0.0,72,0.00,CLR,CLR,0.00,WeatherDisplay:10.37,2013-02-03 04:00:00,
2013-02-02 23:05:00,54.7,46.6,30.09,North,360,0.0,1.0,74,0.00,SCT,SCT,0.00,WeatherDisplay:10.37,2013-02-03 04:05:00,
2013-02-02 23:10:00,54.7,46.9,30.09,North,360,0.0,1.0,75,0.00,SCT,SCT,0.00,WeatherDisplay:10.37,2013-02-03 04:10:00,
2013-02-02 23:20:00,54.3,46.5,30.09,NNW,341,0.0,1.0,75,0.00,SCT,SCT,0.00,WeatherDisplay:10.37,2013-02-03 04:20:00,
2013-02-02 23:30:00,53.6,45.9,30.09,NNW,338,0.0,0.0,75,0.00,SCT,SCT,0.00,WeatherDisplay:10.37,2013-02-03 04:30:00,
2013-02-02 23:40:00,53.1,44.3,30.09,NNW,338,0.0,0.0,72,0.00,SCT,SCT,0.00,WeatherDisplay:10.37,2013-02-03 04:40:00,
2013-02-02 23:50:00,53.3,46.6,30.08,NNW,338,1.0,1.0,78,0.00,SCT,SCT,0.00,WeatherDisplay:10.37,2013-02-03 04:50:00,